Hourly Data Report for June 15, 2021

WRIGLEY A
NORTHWEST TERRITORIES
Current Station Operator: NAVCAN

63°12'35.000" N
123°26'12.000" W
149.70 m
2204005
YWY

Download Data

Hourly Data (June 2021)
Hourly Data Report for June 15, 2021
TIME
LST
Temp Definition
°C
Dew Point Definition
°C
Rel Hum Definition
%
Precip. Amount Definition
mm

Wind Dir Definition
10's deg

Wind Spd Definition
km/h
Visibility Definition
km
Stn Press Definition
kPa
Hmdx Definition


Wind Chill Definition


Weather Definition


00:00 13.8 7.0 63 LegendMM 34 4 LegendMM 99.96     LegendNANA
01:00 12.4 7.4 71 LegendMM 31 9 LegendMM 99.97     LegendNANA
02:00 11.7 7.1 74 LegendMM 33 3 LegendMM 100.00     LegendNANA
03:00 9.4 6.7 83 LegendMM 29 4 LegendMM 100.04     LegendNANA
04:00 8.1 6.8 91 LegendMM 0 1 LegendMM 100.05     LegendNANA
05:00 8.8 7.3 91 LegendMM 28 2 LegendMM 100.05     LegendNANA
06:00 9.9 7.2 83 LegendMM 26 4 LegendMM 100.07     LegendNANA
07:00 10.7 7.4 80 LegendMM 1 3 LegendMM 100.06     LegendNANA
08:00 12.0 8.4 79 LegendMM 1 2 LegendMM 100.07     LegendNANA
09:00 13.6 7.6 67 LegendMM 29 8 LegendMM 100.02     LegendNANA
10:00 15.4 7.0 57 LegendMM 26 4 LegendMM 100.00     LegendNANA
11:00 16.4 6.7 52 LegendMM 24 7 LegendMM 99.94     LegendNANA
12:00 18.0 6.9 48 LegendMM 30 13 LegendMM 99.90     LegendNANA
13:00 18.8 7.2 46 LegendMM 28 7 LegendMM 99.87     LegendNANA
14:00 19.5 7.2 45 LegendMM 28 9 LegendMM 99.84     LegendNANA
15:00 20.5 7.5 43 LegendMM 20 8 LegendMM 99.79     LegendNANA
16:00 21.2 7.6 41 LegendMM 24 9 LegendMM 99.73     LegendNANA
17:00 21.5 7.9 41 LegendMM 22 4 LegendMM 99.71     LegendNANA
18:00 20.7 6.6 40 LegendMM 16 4 LegendMM 99.67     LegendNANA
19:00 20.5 6.6 40 LegendMM 16 4 LegendMM 99.63     LegendNANA
20:00 20.1 5.0 37 LegendMM 6 6 LegendMM 99.59     LegendNANA
21:00 18.7 1.8 32 LegendMM 8 10 LegendMM 99.61     LegendNANA
22:00 17.4 2.8 37 LegendMM 27 7 LegendMM 99.65     LegendNANA
23:00 15.9 5.0 48 LegendMM 6 6 LegendMM 99.68     LegendNANA

Notes on Data Quality.

Legend

  • E = Estimated
  • M = Missing
  • NA = Not Available*
  • [empty] = Indicates an unobserved value
Date modified: